Regional Weather Roundup
Issued by NWS

Home | Current Version | Previous Version | Graphics & Text | Print | Product List | Glossary On
Versions: 1 2 3 4 5 6 7 8 9 10 11 12 13 14 15 16 17 18 19 20 21 22 23 24 25 26 27 28 29 30 31 32 33 34 35 36 37 38 39 40 41 42 43 44 45 46 47 48 49 50
000
ASUS43 KMPX 130001
RWRMN
WEATHER ROUNDUP FOR MINNESOTA
NATIONAL WEATHER SERVICE TWIN CITIES/CHANHASSEN MN
600 PM CST FRI FEB 12 2016


NOTE: "FAIR" INDICATES FEW OR NO CLOUDS BELOW 12,000 FEET WITH NO
SIGNIFICANT WEATHER AND/OR OBSTRUCTIONS TO VISIBILITY. N/A MEANS
CURRENT SKY AND/OR WEATHER CONDITIONS ARE NOT AVAILABLE.

MNZ060>063-068>070-130100-
   Twin Cities Metro

CITY           SKY/WX    TMP DP  RH WIND       PRES   REMARKS
TWIN CITIES    CLEAR      7 -12  41 NW13      30.54R WCI  -9
6HR MIN TEMP:   7; 6HR MAX TEMP:  11;

ST PAUL        PTCLDY     7 -11  43 NW18      30.55R WCI -12
CRYSTAL        CLEAR      7 -11  43 NW13      30.53R WCI  -9
BLAINE         CLEAR      9 -11  40 NW12G17   30.52R WCI  -6
LAKEVILLE      CLEAR      5  -9  51 NW18      30.51R WCI -15
EDEN PRAIRIE   CLEAR      7 -10  46 NW10      30.53R WCI  -8
6HR MIN TEMP:   7; 6HR MAX TEMP:  10;

SOUTH ST PAUL  CLEAR      8 -12  39 NW13      30.53R WCI  -7
LAKE ELMO      FAIR       9 -11  40 NW7       30.53R WCI  -3
$$
MNZ001>005-007-008-013>017-022>024-027-028-130100-
   Northwest Minnesota

CITY           SKY/WX    TMP DP  RH WIND       PRES   REMARKS
BEMIDJI        PTCLDY    -6 -15  66 NW15      30.54R WCI -27
HALLOCK        CLOUDY    -6 -15  65 N8        30.67S WCI -21
ROSEAU         CLEAR     -8 -17  65 W9        30.61S WCI -25
WARROAD        MOCLDY    -6 -18  54 NW8       30.59S WCI -21
THIEF RVR FALL PTCLDY    -8 -20  54 NW10      30.62F WCI -26
CROOKSTON      PTCLDY    -4  -9  77 N8        30.67S WCI -19
FOSSTON          N/A     -9 -17  70 NW8       30.60S WCI -26
DETROIT LAKES  CLOUDY    -4 -11  71 NW9       30.59R WCI -20
MOORHEAD       CLEAR     -2  -9  71 N10       30.68R WCI -19
PARK RAPIDS    CLEAR     -4 -14  62 NW10      30.52S WCI -21
$$
MNZ006-009>011-018-025>026-130100-
   North Central Minnesota

CITY           SKY/WX    TMP DP  RH WIND       PRES   REMARKS
BAUDETTE       CLEAR     -6 -20  50 NW14      30.55R WCI -26
FLAG ISLAND    PTCLDY    -8 -18  59 NW12      30.58R WCI -27
INTL FALLS     PTCLDY    -7 -19  56 NW10      30.51R WCI -25
6HR MIN TEMP:  -7; 6HR MAX TEMP:  -3;

WASKISH        PTCLDY    -6 -15  65 W12       30.55R WCI -24
LONGVILLE      PTCLDY    -4 -17  54 NW7       30.52R WCI -18
GRAND RAPIDS   PTCLDY    -2 -17  50 NW10      30.47R WCI -19
CRANE LAKE     PTCLDY    -6 -18  54 NW3       30.49R
ORR            CLEAR     -8 -20  54 NW12G18   30.44R WCI -27
COOK           PTCLDY    -6 -18  54 NW13G20   30.46R WCI -25
WALKER         FAIR      -4 -16  55 NW12G17   30.53R WCI -22
$$
MNZ012-019>021-037-130100-
   Northeast Minnesota

CITY           SKY/WX    TMP DP  RH WIND       PRES   REMARKS
DULUTH         PTCLDY    -1 -18  44 NW15G24   30.41R WCI -21
6HR MIN TEMP:  -2; 6HR MAX TEMP:   1;

ELY            CLEAR     -6 -17  59 NW9       30.40R WCI -22
HIBBING        CLEAR     -5 -19  51 NW13      30.45R WCI -24
EVELETH        CLEAR      0 -18  42 NW10G17   30.44R WCI -17
DULUTH HARBOR  CLEAR      5 -15  39 NW14G24   30.51R WCI -12
TWO HARBORS    CLEAR      1 -15  46 W5        30.40R WCI  -8
SILVER BAY     CLEAR      0 -17  46 CALM      30.39R
GRAND MARAIS     N/A     -1 -12  59 VRB7      30.43R WCI -14
G MARAIS ARPRT CLEAR     -9 -20  59 W12G18    30.26R WCI -29
$$
MNZ029>031-032-039>041-046>048-054>057-064-130100-
   West Central Minnesota

CITY           SKY/WX    TMP DP  RH WIND       PRES   REMARKS
FERGUS FALLS   CLEAR     -2  -9  71 N12       30.66R WCI -20
WHEATON        PTCLDY     0  -8  71 NW9       30.68R WCI -16
MORRIS         CLEAR      1  -8  66 NW16      30.61R WCI -18
ALEXANDRIA     CLEAR     -1 -13  56 N10       30.56R WCI -17
ELBOW LAKE     FAIR      -1  -9  69 NW13      30.61R WCI -19
WADENA         CLEAR     -6 -13  71 NW9       30.54S WCI -22
GLENWOOD       CLEAR      0 -11  60 NW9       30.56S WCI -16
APPLETON       PTCLDY     3  -4  72 NW15      30.64R WCI -15
BENSON         CLEAR      1  -8  66 N13G18    30.61R WCI -16
ORTONVILLE     CLOUDY     0  -9  65 NW12      30.64R WCI -18
MADISON        CLOUDY     1  -8  66 NW13      30.64R WCI -16
WILLMAR        FAIR       5  -6  61 NW14      30.59R WCI -12
$$
MNZ033>034-036-042>043-049>051-058-059-130100-
   Central Minnesota

CITY           SKY/WX    TMP DP  RH WIND       PRES   REMARKS
ST CLOUD       CLEAR      3 -10  54 NW12      30.54R WCI -13
6HR MIN TEMP:   3; 6HR MAX TEMP:   8;

SAUK CENTRE    FAIR       0 -12  56 NW10      30.55S WCI -16
PAYNESVILLE    MOCLDY     2 -10  57 NW10G17   30.56R WCI -13
AITKIN         CLEAR      1 -18  39 NW6       30.49S WCI -10
PINE RIVER     CLEAR      0 -15  50 NW6       30.54R WCI -12
BRAINERD       CLEAR      2 -15  45 NW10      30.52R WCI -14
STAPLES        CLEAR     -2 -15  55 NW12      30.53S WCI -20
LONG PRAIRIE   FAIR       0 -13  55 W8        30.54R WCI -15
LITTLE FALLS   CLEAR      3 -13  47 W9        30.54S WCI -11
LITCHFIELD     CLEAR      3  -8  60 NW10G17   30.55S WCI -12
BUFFALO        CLEAR      6 -10  47 W8        30.56R WCI  -7
MAPLE LAKE     PTCLDY     6  -8  51 NW8       30.55R WCI  -7
$$
MNZ037-044-045-052-053-130100-
   East Central Minnesota

CITY           SKY/WX    TMP DP  RH WIND       PRES   REMARKS
PRINCETON      CLEAR      5  -9  51 W9        30.53R WCI  -9
MORA           PTCLDY     5 -13  43 CALM      30.53R
CAMBRIDGE      PTCLDY     7  -9  47 CALM      30.52R
RUSH CITY      MOCLDY     4 -14  44 NW8       30.53R WCI -10
MOOSE LAKE     CLEAR      1 -17  42 NW5       30.48R WCI  -8
HINCKLEY       FAIR       5 -13  43 NW8       30.51R WCI  -8
CLOQUET        PTCLDY     0 -18  42 W10       30.44R WCI -17
MCGREGOR       PTCLDY     1 -15  46 NW9       30.49R WCI -14
$$
MNZ071>073-080-081-089-090-097-098-130100-
   Southwest Minnesota

CITY           SKY/WX    TMP DP  RH WIND       PRES   REMARKS
MONTEVIDEO     PTCLDY     1  -6  71 N14       30.64R WCI -17
GRANITE FALLS  CLEAR      5  -2  72 NW15      30.63R WCI -13
CANBY          CLOUDY     4  -4  68 NW10G17   30.63R WCI -11
MARSHALL       CLOUDY     2  -5  72 N15       30.61R WCI -17
REDWOOD FALLS  CLEAR      5  -5  63 NW15G21   30.59R WCI -13
OLIVIA         CLEAR      9  -4  56 NW15      30.58R WCI  -8
PIPESTONE      CLOUDY     3 -11  51 N8        30.55R WCI -10
WINDOM         CLOUDY     1  -2  85 NW18      30.54R WCI -19
WORTHINGTON    CLOUDY     1  -8  66 NW9       30.55S WCI -14
JACKSON        CLOUDY     5  -4  66 NW14      30.54R WCI -12
TRACY          CLOUDY     3  -3  75 NW13G18   30.59R WCI -14
SLAYTON        CLOUDY     1  -5  78 N12       30.55S WCI -16
$$
MNZ065>067-074>077-082>085-091>093-130100-
   South Central Minnesota

CITY           SKY/WX    TMP DP  RH WIND       PRES   REMARKS
MANKATO        CLEAR      7  -6  56 NW14      30.53S WCI -10
NEW ULM        CLEAR      7  -6  56 NW12      30.56R WCI  -9
ST JAMES       CLEAR      7   0  72 NW15      30.57R WCI -11
FAIRMONT       CLEAR      5  -4  66 NW16      30.53R WCI -14
GLENCOE        CLEAR      7  -4  61 NW10G17   30.54S WCI  -8
OWATONNA       CLEAR      5  -9  51 NW14      30.50R WCI -12
WASECA         PTCLDY     5  -6  61 NW10      30.53R WCI -10
ALBERT LEA     CLEAR      7  -6  56 NW8       30.49R WCI  -6
$$
MNZ078>079-086>088-094>096-130100-
   Southeast Minnesota

CITY           SKY/WX    TMP DP  RH WIND       PRES   REMARKS
ROCHESTER      CLEAR      4  -8  57 NW15      30.45R WCI -14
6HR MIN TEMP:   4; 6HR MAX TEMP:  10;

STANTON        CLEAR      6  -8  52 NW9       30.50R WCI  -8
DODGE CENTER   PTCLDY     3  -9  55 NW15      30.45R WCI -15
WINONA         CLEAR     10  -6  48 NW16G22   30.50R WCI  -7
AUSTIN         CLEAR      5  -6  61 NW12      30.48R WCI -11
PRESTON        CLEAR      5  -9  53 NW12      30.44R WCI -11
$$
ABBREVIATIONS USED IN REMARKS
   TC - TEMPERATURES IN CELSIUS
  WCI - WIND CHILL INDEX
   HX - HEAT INDEX
  VSB - VISIBILITY
$$



USA.gov is the U.S. government's official web portal to all federal, state and local government web resources and services.